This is the latest recevied weather packets stored in our database for station/object SQ7IQO. If no packets are shown the sender has not sent any weather packets the latest 10 day(s).
| Time | Temp. | Humidity | Pressure | Rain* | Wind** | Luminosity | Snow |
|---|---|---|---|---|---|---|---|
| 1787977961 | 17.78° C | 95% | 1012.3 hPa | 2.79 mm | 1.34 m/s, ° | - | - |
| 1787977901 | 17.78° C | 95% | 1012.3 hPa | 2.79 mm | 1.79 m/s, ° | - | - |
| 1787977841 | 17.78° C | 95% | 1223 hPa | 0 mm | 2.24 m/s, ° | - | - |
| 1787977781 | 17.78° C | 95% | 1012.2 hPa | 0 mm | 1.34 m/s, ° | - | - |
| 1787977721 | 17.78° C | 94% | 1012.2 hPa | 0 mm | 1.79 m/s, ° | - | - |
| 1787977661 | 17.78° C | 94% | 1012.2 hPa | 0 mm | 0.89 m/s, ° | - | - |
| 1787977601 | 17.78° C | 93% | 1012.2 hPa | 0 mm | 1.34 m/s, ° | - | - |
| 1787977541 | 17.78° C | 92% | 1009.8 hPa | 0 mm | 2.24 m/s, ° | - | - |
| 1787977481 | 18.33° C | 92% | 1012.2 hPa | 0 mm | 0.45 m/s, ° | - | - |
| 1787977421 | 18.33° C | 91% | 1012.1 hPa | 0 mm | 1.34 m/s, ° | - | - |
| 1787977361 | 18.33° C | 91% | 1012.2 hPa | 0 mm | 1.34 m/s, ° | - | - |
| 1787977301 | 18.33° C | 90% | 1012.1 hPa | 0 mm | 1.79 m/s, ° | - | - |
| 1787977241 | 18.33° C | 89% | 1012.3 hPa | 0 mm | 1.79 m/s, ° | - | - |
| 1787977181 | 18.33° C | 89% | 1012.2 hPa | 0 mm | 2.68 m/s, ° | - | - |
| 1787977121 | 18.33° C | 87% | 1019.2 hPa | 0 mm | 2.68 m/s, ° | - | - |
| 1787977061 | 18.33° C | 86% | 1012.2 hPa | 0 mm | 1.34 m/s, ° | - | - |
| 1787977001 | 18.33° C | 86% | 1012.1 hPa | 0 mm | 1.79 m/s, ° | - | - |
| 1787976941 | 18.33° C | 86% | 1012.1 hPa | 0 mm | 1.79 m/s, ° | - | - |
| 1787976881 | 18.33° C | 85% | 1012.1 hPa | 0 mm | 1.34 m/s, ° | - | - |
| 1787976821 | 18.33° C | 85% | 1012.2 hPa | 0 mm | 0.89 m/s, ° | - | - |
| 1787976761 | 18.33° C | 84% | 1012.1 hPa | 0 mm | 1.79 m/s, ° | - | - |
| 1787976701 | 18.33° C | 82% | 1012.2 hPa | 0 mm | 1.34 m/s, ° | - | - |
| 1787976641 | 18.33° C | 82% | - | 0 mm | 1.34 m/s, ° | - | - |
| 1787976581 | 18.33° C | 80% | 1012.1 hPa | 0 mm | 1.34 m/s, ° | - | - |
| 1787976521 | 18.33° C | 79% | 1012.1 hPa | 0 mm | 0.89 m/s, ° | - | - |
* Rain latest hour (hover to see other rain measurements)
** Current wind speed in m/s (hover to see current wind gust speed)